Location: Hawks Ness
(60.2333°N, 1.1667°W)
Time: 10:45:23
(UTC+00:00)

ERBS - Pass Details

Date: 22 October 2019
Orbit: 414 x 428 km, 57.0° (Epoch: 14 November)

Event Time Altitude Azimuth Distance (km) Brightness Sun altitude
Exits shadow 04:19:22 27° 163° (SSE) 856 3.8 -20.5°
Maximum altitude 04:19:38 27° 154° (SSE) 848 3.9 -20.5°
Drops below altitude 10° 04:22:34 10° 94° (E) 1,520 6.1 -20.2°
Sets 04:24:51 0° 82° (E) 2,392 7.7 -19.9°
